Location: Newark
(34.6283°N, 36.0776°E)
Time: 05:38:35
(UTC+00:00)

S-56A Canister/Altair - Pass Details

Date: 16 October 2019
Orbit: 634 x 2498 km, 38.9° (Epoch: 20 November)

Event Time Altitude Azimuth Distance (km) Brightness Sun altitude
Rises 02:16:36 0° 260° (W) 3,795 - -18.3°
Reaches altitude 10° 02:18:53 10° 262° (W) 3,036 - -17.8°
Exits shadow 02:21:14 25° 265° (W) 2,323 9.3 -17.3°
Maximum altitude 02:26:34 77° 348° (NNW) 1,564 9.0 -16.2°
Drops below altitude 10° 02:38:31 10° 75° (ENE) 4,552 12.7 -13.7°
Sets 02:42:43 0° 77° (ENE) 5,782 13.7 -12.9°
